sat.trackr.live / text

‹ back to catalog

STARLINK-32395

NORAD 61679 · 2024-193U

PAYLOAD ACTIVE UNKNOWN

§ Identity

Operator
Country
US
Launch date
2024-10-26
Launch site
AFETR
Launch vehicle
Mass (kg)
RCS (m²)

Purposes: comms

External: N2YO · Heavens-Above · Gunter

§ Orbital elements

Epoch: 2026-05-25T02:52:21.883008Z

Period
94.11 min
Inclination
53.1609°
Eccentricity
0.0001430
Mean motion
15.30188313 rev/d
Perigee alt
474.3 km
Apogee alt
476.2 km
Semi-major
6,853.4 km
B*
-1.1778e-5
RAAN
96.3314°
Arg perigee
86.4479°
Mean anomaly
273.6685°
Rev number
8,822

§ Raw data

STARLINK-323951 61679U 24193U   26145.11969772 -.00000708  00000+0 -11778-4 0  99922 61679  53.1609  96.3314 0001430  86.4479 273.6685 15.30188313 88227

JSON: /api/v1/satellites/61679 · /tle

For live sub-satellite position, see the globe view (requires WebGL).

§ Visibility from observer

Set your observer location to see the next 7 days of passes ≥ 10°. The values pass through the URL so the page stays shareable.

No JS? Fill the form by hand. The geolocation button needs JavaScript.